Weather History for EGOM - February, 2013

Change the Weather History Date:

Sunday, February 3, 2013

  Actual Average Record
Temperature  
Mean Temperature 38 °F -  
Max Temperature 44 °F - - ()
Min Temperature 32 °F - - ()
Degree Days  
Heating Degree Days 27    
Moisture  
Dew Point 39 °F    
Average Humidity 97    
Maximum Humidity 100    
Minimum Humidity 80    
Precipitation  
Precipitation 0.00 in - - ()
Sea Level Pressure  
Sea Level Pressure 29.77 in    
Wind  
Wind Speed 20 mph ()    
Max Wind Speed 30 mph    
Max Gust Speed 43 mph    
Visibility 2.8 miles    
Events Rain , Snow    
T = Trace of Precipitation, MM = Missing Value Source: Averaged Metar Reports

Daily Weather History Graph

Daily Weather History Graph

Search for Another Location

Airport or City:

Trip Planner

Search our weather history database for the weather conditions in past years. The results will help you decide how hot, cold, wet, or windy it might be!

Date:

Astronomy

Feb. 03, 2013 Rise Set
Actual Time 7:57 AM GMT 4:51 PM GMT
Civil Twilight 7:17 AM GMT 5:31 PM GMT
Nautical Twilight 6:34 AM GMT 6:14 PM GMT
Astronomical Twilight 5:51 AM GMT 6:57 PM GMT
Moon 1:08 AM GMT (2/3) 10:14 AM GMT (2/3)
Length of Visible Light 10h 13m
Length of Day
8h 54m
Waning Gibbous, 51% of the Moon is Illuminated
Feb 3
Waning Gibbous
Feb 3
Last Quarter
Feb 10
New
Feb 17
First Quarter
Feb 25
Full

Hourly Weather History & Observations

Time (GMT) Temp. Windchill Dew Point Humidity Pressure Visibility Wind Dir Wind Speed Gust Speed Precip Events Conditions
12:50 AM 32.0 °F 22.1 °F 26.6 °F 80% 30.04 in 6.2 mi WSW 13.8 mph - N/A   Mostly Cloudy
1:50 AM 32.0 °F 21.6 °F 28.4 °F 87% 30.01 in 1.2 mi SW 15.0 mph - N/A Snow Light Snow Showers
2:50 AM 32.0 °F 19.5 °F 30.2 °F 93% 29.95 in 1.1 mi SW 21.9 mph - N/A Snow Snow
3:50 AM 32.0 °F 19.8 °F 32.0 °F 100% 29.92 in 1.7 mi WSW 20.7 mph - N/A Snow Light Snow
4:50 AM 33.8 °F 21.9 °F 33.8 °F 100% 29.86 in 1.3 mi WSW 21.9 mph - N/A Rain Light Rain
5:50 AM 33.8 °F 21.9 °F 33.8 °F 100% 29.80 in - West 21.9 mph - N/A   Light Drizzle
6:50 AM 35.6 °F 23.7 °F 35.6 °F 100% 29.77 in 5.0 mi WSW 24.2 mph - N/A   Light Drizzle
8:50 AM 41.0 °F 30.2 °F 41.0 °F 100% 29.74 in 0.1 mi WSW 27.6 mph - N/A Rain Rain
9:50 AM 41.0 °F 30.5 °F 41.0 °F 100% 29.77 in 0.9 mi West 26.5 mph 39.1 mph N/A   Overcast
10:50 AM 42.8 °F 32.9 °F 42.8 °F 100% 29.77 in 3.1 mi WSW 26.5 mph - N/A   Mostly Cloudy
11:50 AM 42.8 °F 32.9 °F 42.8 °F 100% 29.74 in - West 26.5 mph - N/A   Mostly Cloudy
12:50 PM 42.8 °F 32.5 °F 42.8 °F 100% 29.74 in 4.3 mi West 28.8 mph - N/A   Mostly Cloudy
1:50 PM 44.6 °F 34.7 °F 42.8 °F 93% 29.74 in 5.0 mi West 29.9 mph 42.6 mph N/A   Haze
2:50 PM 44.6 °F 35.7 °F 41.0 °F 87% 29.74 in 4.3 mi West 24.2 mph - N/A   Haze
3:50 PM 42.8 °F 33.3 °F 41.0 °F 93% 29.71 in 5.0 mi West 24.2 mph - N/A   Haze
4:50 PM 42.8 °F 33.1 °F 41.0 °F 93% 29.71 in 3.7 mi West 25.3 mph - N/A   Haze
5:50 PM 41.0 °F 31.1 °F 41.0 °F 100% 29.71 in 3.1 mi West 23.0 mph - N/A   Mostly Cloudy
6:50 PM 42.8 °F 33.1 °F 42.8 °F 100% 29.68 in - West 25.3 mph - N/A   Overcast
7:50 PM 42.8 °F 33.1 °F 42.8 °F 100% 29.68 in 3.1 mi WSW 25.3 mph - N/A   Overcast
8:50 PM 42.8 °F 32.9 °F 42.8 °F 100% 29.65 in 0.2 mi WSW 26.5 mph 38.0 mph N/A Rain Light Rain Showers
10:50 PM 42.8 °F 32.3 °F 42.8 °F 100% 29.59 in 3.7 mi West 29.9 mph - N/A   Overcast
11:50 PM 44.6 °F 34.7 °F 44.6 °F 100% 29.56 in 0.2 mi WSW 29.9 mph 41.4 mph N/A   Light Drizzle